Simultaneous Nadir Overpasses (SNOs) Predictions

Prediction of SNOs between NOAA-20 and NOAA-19 Satellite Orbit:

Table of predicted SNOs for the next 14.0 days since TLE Epoch: 7/16/2022
Index Date (NOAA-20) Time (NOAA-20) Lat,Lon (NOAA-20) SZA (NOAA-20 ) Date (NOAA-19) Time (NOAA-19) Lat,Lon (NOAA-19) SZA (NOAA-19 ) Distance(km) Time Diff (sec)
1 07/18/2022 06:03:00 76.62, 70.64 56.46 07/18/2022 06:01:47 76.61, 69.83 56.55 20.88 73
2 07/18/2022 06:53:47 -76.74,-122.49 123.40 07/18/2022 06:52:45 -76.72,-122.47 123.40 2.63 62
3 07/18/2022 07:44:32 76.72, 44.90 56.59 07/18/2022 07:43:44 76.73, 44.84 56.62 1.89 48
4 07/18/2022 08:35:17 -76.75,-147.89 123.38 07/18/2022 08:34:44 -76.75,-147.82 123.36 1.96 33
5 07/18/2022 09:26:03 76.77, 19.32 56.67 07/18/2022 09:25:43 76.77, 19.50 56.65 4.42 20
6 07/18/2022 10:16:47 -76.75,-173.29 123.35 07/18/2022 10:16:44 -76.75,-173.34 123.36 1.52 3
7 07/18/2022 11:07:32 76.78, -6.08 56.69 07/18/2022 11:07:42 76.76, -6.03 56.66 2.37 10
8 07/18/2022 11:58:16 -76.76, 161.31 123.33 07/18/2022 11:58:42 -76.78, 161.32 123.32 2.44 26
9 07/18/2022 12:49:02 76.79, -31.48 56.71 07/18/2022 12:49:41 76.80, -31.38 56.69 2.80 39
10 07/18/2022 13:39:46 -76.77, 135.91 123.31 07/18/2022 13:40:42 -76.78, 135.79 123.31 3.14 56
11 07/18/2022 14:30:32 76.79, -56.88 56.73 07/18/2022 14:31:41 76.79, -56.90 56.70 0.78 69
12 07/18/2022 15:21:26 -77.21, 108.72 122.73 07/18/2022 15:22:32 -77.18, 112.12 123.07 83.90 66



Historial Predications of SNOs between NOAA-20 and NOAA-19
